Buffalo, NY

6:48 AM EDT on October 21, 2019 (GMT -0400)
Buffalo Niagara International

Weather History for KBUF - August, 2019

Change the Weather History Date:

Friday, August 9, 2019

  Actual Average Record
Temperature  
Mean Temperature 69 °F 70 °F  
Max Temperature 76 °F 79 °F 95 °F (1914)
Min Temperature 61 °F 62 °F 48 °F (1964)
Degree Days  
Heating Degree Days 0 0  
Month to date heating degree days 0 0  
Since 1 June heating degree days 62 73  
Since 1 July heating degree days 0 9  
Cooling Degree Days 4 6  
Month to date cooling degree days 68 54  
Year to date cooling degree days 436 380  
Since 1 June cooling degree days 428 354  
Growing Degree Days 18 (Base 50)    
Moisture  
Dew Point 54 °F    
Average Humidity 56    
Maximum Humidity 73    
Minimum Humidity 38    
Precipitation  
Precipitation T in 0.10 in 1.63 in (2009)
Month to date precipitation 0.35 0.98  
Year to date precipitation 25.10 22.88  
Snow  
Snow 0.00 in 0.00 in 0.00 in ()
Month to date snowfall 0.0 0.0  
Since 1 June snowfall 0.0 0.0  
Since 1 July snowfall 0.0 0.0  
Snow Depth 0.00 in    
Sea Level Pressure  
Sea Level Pressure 29.80 in    
Wind  
Wind Speed 12 mph (West)    
Max Wind Speed 26 mph    
Max Gust Speed 34 mph    
Visibility 10 miles    
Events Rain    
T = Trace of Precipitation, MM = Missing Value Source: NWS Daily Summary

Daily Weather History Graph

Daily Weather History Graph

Search for Another Location

Airport or City:

Astronomy

Aug. 09, 2019 Rise Set
Actual Time 6:14 AM EDT 8:25 PM EDT
Civil Twilight 5:42 AM EDT 8:57 PM EDT
Nautical Twilight 5:04 AM EDT 9:35 PM EDT
Astronomical Twilight 4:21 AM EDT 10:17 PM EDT
Moon 4:06 PM EDT (8/9) 1:09 AM EDT (8/9)
Length of Visible Light 15h 14m
Length of Day
14h 11m
Waxing Gibbous, 70% of the Moon is Illuminated
Aug 9
Waxing Gibbous
Aug 15
Full
Aug 23
Last Quarter
Aug 30
New
Sep 5
First Quarter

Hourly Weather History & Observations

Time (EDT) Temp. Dew Point Humidity Pressure Visibility Wind Dir Wind Speed Gust Speed Precip Events Conditions
12:54 AM 66.9 °F 55.0 °F 66% 29.75 in 10.0 mi West 4.6 mph - N/A   Mostly Cloudy
1:54 AM 66.0 °F 55.0 °F 68% 29.76 in 10.0 mi WNW 5.8 mph - N/A   Scattered Clouds
2:54 AM 64.9 °F 54.0 °F 68% 29.77 in 10.0 mi WNW 4.6 mph - N/A   Scattered Clouds
3:54 AM 64.0 °F 54.0 °F 70% 29.76 in 10.0 mi WNW 5.8 mph - N/A   Clear
4:54 AM 63.0 °F 51.1 °F 65% 29.76 in 10.0 mi NW 6.9 mph - N/A   Clear
5:54 AM 61.0 °F 52.0 °F 72% 29.78 in 10.0 mi West 5.8 mph - N/A   Clear
6:54 AM 62.1 °F 52.0 °F 70% 29.81 in 10.0 mi West 4.6 mph - N/A   Partly Cloudy
7:54 AM 66.0 °F 54.0 °F 65% 29.81 in 10.0 mi West 5.8 mph - N/A   Partly Cloudy
8:54 AM 68.0 °F 53.1 °F 59% 29.82 in 10.0 mi WNW 11.5 mph - N/A   Partly Cloudy
9:54 AM 71.1 °F 54.0 °F 55% 29.82 in 10.0 mi WNW 11.5 mph - N/A   Partly Cloudy
10:54 AM 73.0 °F 53.1 °F 49% 29.83 in 10.0 mi West 13.8 mph 23.0 mph N/A   Partly Cloudy
11:54 AM 73.9 °F 52.0 °F 46% 29.83 in 10.0 mi West 15.0 mph 23.0 mph N/A   Partly Cloudy
11:59 AM 72.0 °F 51.1 °F 48% 29.83 in 10.0 mi West 17.3 mph 24.2 mph N/A   Scattered Clouds
12:54 PM 73.0 °F 55.9 °F 55% 29.81 in 10.0 mi WSW 15.0 mph - N/A   Mostly Cloudy
1:54 PM 73.0 °F 55.0 °F 53% 29.81 in 10.0 mi WSW 19.6 mph 25.3 mph N/A   Mostly Cloudy
2:54 PM 75.0 °F 55.0 °F 50% 29.80 in 10.0 mi WSW 17.3 mph 32.2 mph N/A   Scattered Clouds
3:54 PM 75.9 °F 55.9 °F 50% 29.78 in 10.0 mi SW 23.0 mph 33.4 mph N/A   Scattered Clouds
4:54 PM 73.9 °F 55.9 °F 53% 29.78 in 10.0 mi WSW 19.6 mph 28.8 mph 0.00 in   Mostly Cloudy
5:54 PM 73.9 °F 57.0 °F 55% 29.79 in 10.0 mi WSW 24.2 mph 27.6 mph 0.00 in   Mostly Cloudy
7:54 PM 73.0 °F 51.1 °F 46% 29.81 in 10.0 mi West 11.5 mph - N/A   Scattered Clouds
8:54 PM 72.0 °F 52.0 °F 49% 29.81 in 10.0 mi West 13.8 mph 19.6 mph N/A   Mostly Cloudy
9:54 PM 64.9 °F 57.0 °F 75% 29.84 in 10.0 mi NNW 6.9 mph - 0.00 in Rain Light Rain
10:54 PM 64.9 °F 57.0 °F 75% 29.85 in 10.0 mi West 4.6 mph - 0.00 in   Scattered Clouds
11:54 PM 64.9 °F 55.9 °F 73% 29.85 in 10.0 mi NW 8.1 mph - N/A   Scattered Clouds